Regional Weather Roundup
Issued by NWS

Home | Current Version | Previous Version | Graphics & Text | Print | Product List | Glossary On
Versions: 1 2 3 4 5 6 7 8 9 10 11 12 13 14 15 16 17 18 19 20 21 22 23 24 25 26 27 28 29 30 31 32 33 34 35 36 37 38 39 40 41 42 43 44 45 46 47 48 49 50
000
ASUS45 KBOU 060407
RWRCO

WEATHER ROUNDUP FOR COLORADO
NATIONAL WEATHER SERVICE DENVER/BOULDER CO
1000 PM MDT THU MAY 05 2016

NOTE: "FAIR" INDICATES FEW OR NO CLOUDS BELOW 12000 FEET WITH NO
SIGNIFICANT WEATHER AND/OR OBSTRUCTIONS TO VISIBILITY.

COZ001>005-013-030-031-060500-
...NORTHWEST COLORADO...

CITY           SKY/WX    TMP DP  RH WIND       PRES   REMARKS
CRAIG          FAIR      51  36  56 CALM      30.01R
HAYDEN         FAIR      57  30  35 SE5       30.03S
MEEKER         FAIR      54  35  48 NE7       30.01R
MOUNT WERNER   NOT AVBL
STEAMBOAT SPGS FAIR      60  27  28 CALM      30.06R
WALDEN         FAIR      50  32  50 SE3       30.19R
$$

COZ006>008-011-060500-
...WEST CENTRAL VALLEYS...

CITY           SKY/WX    TMP DP  RH WIND       PRES   REMARKS
GRAND JUNCTION FAIR      67  35  30 NE8       29.89R
MONTROSE       FAIR      64  29  26 SE8       29.98R
EAGLE          FAIR      63  27  25 CALM      30.06R
RIFLE          FAIR      64  31  28 SE12      29.96R
DELTA          NOT AVBL
NUCLA          NOT AVBL
$$

COZ017>023-064>068-060500-
...SOUTHWEST COLORADO...

CITY           SKY/WX    TMP DP  RH WIND       PRES   REMARKS
DURANGO        FAIR      60  30  32 E6        30.06R
CORTEZ         MOCLDY    72  29  20 S21G26    29.98R
PAGOSA SPRINGS FAIR      53  30  42 NE3       30.16R
TELLURIDE      FAIR      56  23  27 E6        30.20F
WOLF CREEK PAS FAIR      41  21  45 S9G17     30.45R
$$

COZ009-010-012-014-032>034-037-058>063-060500-
...CENTRAL COLORADO...

CITY           SKY/WX    TMP DP  RH WIND       PRES   REMARKS
ASPEN          FAIR      57  27  31 S9        30.13R
BUENA VISTA    FAIR      48  32  53 W6        30.19R
COPPER MTN     NOT AVBL
BERTHOUD PASS  FAIR      34  27  75 E15G31    30.45S WCI  24
COTTONWOOD PAS FAIR      55  14  19 S5        30.31R
GUNNISON       FAIR      55  27  33 N8        30.16S
KREMMLING      FAIR      55  27  33 E5        30.12S
LEADVILLE      FAIR      46  18  32 CALM      30.28R
MONARCH PASS   FAIR      41  19  42 SE15      30.52S
SALIDA         FAIR      57  25  29 SW8       30.23R
SUNLIGHT       CLOUDY    46  25  42 CALM      30.34R
WILKERSON PASS FAIR      43  27  52 SW9G18    30.41R
$$

COZ069>075-060500-
...SAN LUIS VALLEY/SANGRE DE CRISTO MOUNTAINS...

CITY           SKY/WX    TMP DP  RH WIND       PRES   REMARKS
ALAMOSA        FAIR      56  34  43 S7        30.15R
LA VETA PASS   CLOUDY    46  23  39 S7        30.33S
SAGUACHE       FAIR      54  30  40 CALM      30.17S
$$

COZ035-036-038>040-060500-
...NORTHERN COLORADO FRONT RANGE...

CITY           SKY/WX    TMP DP  RH WIND       PRES   REMARKS
DENVER INTL AP MOCLDY    61  39  44 S18       30.03R
DMNS CITY PARK   N/A     67  34  28 SE9G15    30.04R
AURORA         FAIR      58  40  49 SE16      30.05R
FRONT RANGE AP NOT AVBL
ERIE MUNI ARPT FAIR      64  38  38 CALM      30.02R
BOULDER MUN AP FAIR      64  36  34 SE7       30.03R
CENTENNIAL     FAIR      63  35  35 S20       30.06R
BROOMFIELD     MOCLDY    68  34  28 SE7       30.05R
FORT COLLINS   FAIR      63  39  42 SE5       30.02R
LONGMONT       FAIR      59  43  54 W3        30.03S
$$

COZ041-046-047-076>085-087-088-060500-
...PIKES PEAK/PALMER DIVIDE AND SOUTHERN FOOTHILLS...

CITY           SKY/WX    TMP DP  RH WIND       PRES   REMARKS
COLO. SPRINGS  FAIR      60  37  42 E8        30.13R
A. F. ACADEMY  FAIR      59  36  41 S12       30.14R
SCHRIEVER AFB  NOT AVBL
ELLICOTT       FAIR     N/A N/A N/A SE13      30.11R
FALCON         NOT AVBL
FORT CARSON    FAIR      62  38  40 SE2       30.10R
LIMON          FAIR      51  41  68 SE7       30.09R
MONUMENT HILL  FAIR      54  36  50 S17       30.17R
TRINIDAD       FAIR      67  27  22 S10G18    30.07R
$$

COZ042>045-048>051-090-091-060500-
...NORTHEAST COLORADO...

CITY           SKY/WX    TMP DP  RH WIND       PRES   REMARKS
GREELEY ARPT   FAIR      63  43  48 SE7       30.01R
AKRON          FAIR      59  42  53 S13       30.03R
BURLINGTON     FAIR      59  44  57 SE14      30.06R
WRAY           NOT AVBL
STERLING       FAIR      63  43  48 S10       29.99R
HOLYOKE        NOT AVBL
FORT MORGAN    FAIR      62  39  41 SE9       30.02R
$$

COZ086-089-092>099-060500-
...SOUTHEAST COLORADO...

CITY           SKY/WX    TMP DP  RH WIND       PRES   REMARKS
PUEBLO         FAIR      66  43  43 E10       30.00R
LA JUNTA       FAIR      64  45  49 E13       30.00R
LAMAR          FAIR      65  46  50 SE15      29.99R
SPRINGFIELD      N/A     59  46  62 SE14      30.04R
$$



USA.gov is the U.S. government's official web portal to all federal, state and local government web resources and services.